User: anonymous   Login
Location: Unspecified
(0.0000°N, 0.0000°E)
Time: 12:39:04
(UTC+02:00)
Language:

ADEOS II - Orbit

View from above orbital plane
View from above orbital plane
View from above satellite
View from above satellite

Ground track
Ground track

The orbit data is extracted from the following two-line orbital elements,

1 27597U 02056A   15214.89079876  .00000095  00000-0  55767-4 0  9998
2 27597 098.2895 205.9513 0001519 125.7972 292.9762 14.27112122657814
Epoch (UTC): 02 August 2015 21:22:45
Eccentricity: 0.0001519
inclination: 98.2895°
perigee height: 800 km
apogee height: 802 km
right ascension of ascending node: 205.9513°
argument of perigee: 125.7972°
revolutions per day: 14.27112122
mean anomaly at epoch: 292.9762°
orbit number at epoch: 65781

The dashed part of the orbit path shows where the satellite is in the earth's shadow,  

DLR